Flag for U.S.A. Weather past 2 weeks in Germantown, Maryland, U.S.A.

Now
79 °F

Sunny.


Feels Like: 82 °F
Forecast: 67 / 84 °F
Wind: No wind

Location: Frederick Municipal Airport

Current Time: Aug 20, 2014 at 7:32:15 PM

Latest Report: Aug 20, 2014 at 6:55 PM


Visibility: 10 mi

Pressure: 29.99 "Hg

Humidity: 79%

Dew point: 72 °F

Location of GermantownLocation

Historic Weather in Germantown — Graph

°F

Germantown temperature yesterday

Maximum temperature yesterday: 82 °F (at 12:55 PM)
Minimum temperature yesterday: 64 °F (at 1:50 AM)
Average temperature yesterday: 72 °F

Past Weeks' High & Low Weather Summary

 TemperatureHumidityPressure
High88 °F (Aug 17, 2:45 PM)100% (Aug 5, 10:30 PM)30.19 "Hg (Aug 5, 10:30 PM)
Low55 °F (Aug 14, 4:55 AM)39% (Aug 15, 3:45 PM)29.79 "Hg (Aug 13, 1:50 AM)
Average72 °F79%30.00 "Hg
* Reported Aug 5 5:55 PM — Aug 20 5:50 PM, Germantown, Weather by CustomWeather, © 2014

Note: Actual official high and low records may vary slightly from our data, if they occured in-between our weather recording intervals... More about our weather records

Advertising

Germantown weather history for previous 24 hours

 ConditionsComfort  
Time TempWeatherWind HumidityBarometerVisibility
5:50 PM
Aug 20
75 °FScattered clouds.No wind94%29.91 "Hg10 mi
4:45 PM73 °FPartly sunny.No wind100%29.99 "Hg10 mi
3:45 PM73 °FThunderstorms. Overcast.7 mph94%29.99 "Hg7 mi
2:45 PM82 °FThundershowers. Partly sunny.9 mph58%29.98 "Hg10 mi
1:50 PM88 °FWarm.12 mph52%29.97 "Hg10 mi
12:47 PM84 °FBroken clouds.9 mph66%29.98 "Hg10 mi
11:47 AM82 °FBroken clouds.3 mph70%30.01 "Hg10 mi
10:52 AM81 °FBroken clouds.8 mph70%30.02 "Hg10 mi
9:45 AM79 °FPartly sunny.No wind74%30.01 "Hg10 mi
8:45 AM73 °FBroken clouds.3 mph89%29.99 "Hg10 mi
7:50 AM72 °FMostly cloudy.No wind94%29.99 "Hg10 mi
6:52 AMN/AOvercast.No windN/AN/A10 mi
6:30 AMN/AOvercast.No windN/A29.98 "Hg10 mi
6:10 AMN/AMostly cloudy.No windN/A29.97 "Hg7 mi
5:50 AM68 °FFog.No wind100%29.96 "Hg5 mi
5:30 AM68 °FPartly cloudy.No wind100%29.95 "Hg10 mi
5:10 AM68 °FMostly cloudy.No wind100%29.95 "Hg10 mi
4:50 AM70 °FMostly cloudy.No wind100%29.94 "Hg10 mi
4:30 AM70 °FOvercast.No wind100%29.95 "Hg10 mi
4:10 AM68 °FMostly cloudy.No wind100%29.95 "Hg7 mi
3:50 AM68 °FPassing clouds.No wind100%29.94 "Hg10 mi
3:30 AM68 °FPassing clouds.No wind100%29.95 "Hg10 mi
3:10 AM70 °FMostly cloudy.No wind100%29.94 "Hg10 mi
2:50 AM70 °FPartly cloudy.No wind100%29.94 "Hg10 mi
2:30 AM70 °FPassing clouds.No wind100%29.95 "Hg10 mi
1:50 AM72 °FOvercast.No wind88%29.96 "Hg10 mi
1:30 AM72 °FOvercast.No wind88%29.96 "Hg10 mi
1:10 AM72 °FMostly cloudy.3 mph88%29.95 "Hg10 mi
12:50 AM72 °FOvercast.No wind94%29.95 "Hg10 mi
12:30 AM72 °FOvercast.No wind94%29.96 "Hg10 mi
12:10 AM73 °FOvercast.No wind89%29.96 "Hg10 mi
11:50 PM
Aug 19
72 °FOvercast.No wind94%29.96 "Hg10 mi
11:30 PM72 °FOvercast.No wind94%29.95 "Hg10 mi
11:10 PM72 °FOvercast.No wind94%29.95 "Hg10 mi
10:50 PM72 °FOvercast.No wind94%29.94 "Hg10 mi
10:30 PM72 °FPassing clouds.No wind88%29.94 "Hg10 mi
10:10 PM73 °FClear.3 mph83%29.93 "Hg10 mi
9:50 PM73 °FClear.3 mph83%29.92 "Hg10 mi
9:30 PM73 °FClear.3 mph89%29.92 "Hg10 mi
9:10 PM73 °FPassing clouds.5 mph89%29.92 "Hg10 mi
8:50 PM73 °FPartly sunny.No wind94%29.92 "Hg10 mi
7:45 PM79 °FScattered clouds.3 mph79%29.89 "Hg10 mi
Weather by CustomWeather, © 2014

See weather overviewHow to use our weather pages